User: anonymous   Login
Location: Brotuna
(46.2000°N, 22.6000°E)
Time: 13:31:35
(UTC+00:00)
Language:

Cosmos-2242 - Orbit

View from above orbital plane
View from above orbital plane
View from above satellite
View from above satellite

Ground track
Ground track

The orbit data is extracted from the following two-line orbital elements,

1 22626U 93024A   20188.92267967  .00000137  00000-0  12169-4 0  9997
2 22626  82.5218  69.6536 0019528  21.0320 339.1696 14.88005067472058
Epoch (UTC): 06 July 2020 22:08:39
Eccentricity: 0.0019528
inclination: 82.5218°
perigee height: 590 km
apogee height: 618 km
right ascension of ascending node: 69.6536°
argument of perigee: 21.0320°
revolutions per day: 14.88005067
mean anomaly at epoch: 339.1696°
orbit number at epoch: 47205

The dashed part of the orbit path shows where the satellite is in the earth's shadow,  

DLR